Weather in Yên Bái

Vietnam     21°42′42″N   104°53′07″E
temp.,
°C
wind,
m/s
gust,
m/s
humid.,
%
clouds,
%
prec.,
mm/h
press.,
hPa
HPBL,
m
26 january, wed
wed2601:00+20se3889100 0.2 1013497
04:00+19se3790100 0.2 1012530
07:00+19se2592100 0.4 1013449
10:00+20se248882 0.3 1015418
13:00+23se3571100 0.5 1011607
16:00+24e357136 0.1 1010521
19:00+22ese248241 0.1 1012121
22:00+21se2488100 0.1 1013230
27 january, thu
thu2701:00+20se2594100 0.8 1013260
04:00+20se2494100 0.9 1012237
07:00+20se2494100 1.4 1013234
10:00+21se259179 0.3 1015308
13:00+24se357590 0.6 1011555
16:00+24ese257270 0.1 1009572
19:00+22se258632 0.3 1012132
22:00+21sse3691100 0.3 1013298
28 january, fri
fri2801:00+21se3691100 1.1 1013306
04:00+20sse2593100 0.6 1012283
07:00+20se2494100 1.0 1013237
10:00+21se2491100 0.4 1014289
13:00+23se258070 0.9 1011467
16:00+24ese367593 0.2 1009454
19:00+22ese2584100 0.6 1010137
22:00+21se4887100 0.3 1012449
29 january, sat
sat2901:00+20se51188100 2.3 1011600
04:00+20se3993100 2.6 1010707
07:00+19se2694100 4.5 1011452
10:00+19s2495100 3.5 1013386
13:00+19ese2494100 5.9 1010366
16:00+17ese2487100 1.0 1010363
19:00+16e2586100 1.8 1014473
22:00+14ese3681100 0.6 1016430
30 january, sun
sun3001:00+14ese2385100 0.9 1015324
04:00+14se2283100 0.1 1014307
07:00+14ese2384100 0.2 1014330
10:00+14ese2385100 0.4 1016381
13:00+13ese2284100 1.0 1013415
16:00+13sse1184100 0.5 1012381
19:00+13ese1290100 2.6 1014266
22:00+13sse1190100 0.6 1016211